Location: G�rtnershof
(49.0264°N, 10.7242°E)
Time: 13:21:08
(UTC+00:00)

Daily predictions for brighter satellites

Satellite Brightness Start Highest point End
(mag) Time Altitude Azimuth Time Altitude Azimuth Time Altitude Azimuth
Cosmos 2322 Rocket 2.4 19:56:34 10° SSW 20:02:10 81° WNW 20:07:49 10° NNE
SL-08 ROCKET BODY 4.4 19:57:14 10° S 20:03:09 74° E 20:09:13 10° NNE
Cosmos 2237 4.3 19:59:14 10° SSW 20:04:54 65° ESE 20:10:37 10° NNE
Cosmos 1328 4.3 20:03:31 10° SSE 20:07:16 42° E 20:11:03 10° NNE
Cosmos 1455 2.3 20:07:50 10° NNW 20:11:41 80° W 20:15:33 10° S
Cosmos 1825 Rocket 3.7 20:12:15 10° S 20:16:35 57° E 20:20:59 10° NNE
ATLAS CENTAUR R/B 2.1 20:15:01 10° NNW 20:18:32 37° NE 20:21:57 10° ESE
Cosmos 1703 3.2 20:17:19 10° S 20:21:10 68° E 20:25:02 10° NNE
Cosmos 1812 Rocket 4.4 20:17:42 10° NNW 20:21:53 48° W 20:26:02 10° SSW
COSMOS 2428 3.6 20:17:24 10° SSE 20:22:13 30° ESE 20:27:04 10° NE
Cosmos 1844 3.8 20:17:56 10° NNW 20:23:47 90° WSW 20:29:30 10° SSE
Cosmos 2322 3.9 20:20:29 10° S 20:25:59 51° ESE 20:31:30 10° NE
CZ-4B DEB 4.4 20:28:15 11° SSE 20:31:28 69° ENE 20:34:50 10° N
Cosmos 783 Rocket 4.5 20:26:54 10° SSW 20:32:08 78° ESE 20:37:22 10° NNE
Cosmos 1709 Rocket 4.1 20:26:31 10° S 20:32:44 71° E 20:39:05 10° NNE
NOSS 3-3 (A) 4.4 20:29:08 10° S 20:34:28 38° ESE 20:40:24 10° NE
NOSS 3-3 (C) 4.4 20:29:16 10° S 20:34:36 38° ESE 20:40:31 10° NE
Atlas Centaur 2 4.1 20:32:38 10° SSW 20:35:53 14° S 20:38:47 11° SSE
Terra 2.4 20:31:40 11° SE 20:35:57 46° ENE 20:40:31 10° N
Cosmos 2237 Rocket 3.9 20:33:12 11° SE 20:36:12 16° E 20:39:30 10° ENE
CARTOSAT-1 3.6 20:32:57 11° SSE 20:37:03 69° ENE 20:41:22 10° N
Cosmos 2333 4.3 20:32:14 10° S 20:37:45 60° ESE 20:43:22 10° NE
Cosmos 2219 Rocket 2.6 20:32:57 10° S 20:38:11 43° ESE 20:43:26 10° NE
Cosmos 2360 Rocket 2.4 20:34:24 10° SSW 20:40:03 76° WNW 20:45:46 10° NNE
IGS 5A 4.0 20:36:11 10° S 20:40:17 58° W 20:44:25 10° NNW
Cosmos 2333 Rocket 2.4 20:42:25 10° S 20:47:55 54° ESE 20:53:30 10° NE
Cosmos 1315 Rocket 3.0 20:46:56 10° N 20:51:01 62° ENE 20:54:13 16° SSE
ATLAS 2AS CENTAUR R/B 3.7 20:43:50 10° NW 20:51:17 47° NE 20:58:09 10° ESE
Resurs 01 Rocket 3.8 20:49:00 10° SW 20:52:22 21° W 20:55:46 10° NW
Cosmos-2242 3.8 20:50:14 10° NNW 20:54:26 49° W 20:58:38 10° SSW
Cosmos 1818 3.9 20:50:01 10° SW 20:55:26 70° NW 21:00:55 10° NE
Cosmos 773 Rocket 4.0 20:52:40 10° SSW 20:57:58 84° ESE 21:03:18 10° NNE
SL-16 R/B 4.3 20:54:23 10° WSW 20:59:23 31° NW 21:04:25 10° NNE
Cosmos 2221 3.1 20:55:14 10° N 20:59:28 45° ENE 21:02:29 17° SE
ERS-1 Rocket 3.2 20:56:51 12° S 21:01:32 71° WSW 21:06:36 10° NNW
GEOS 3 Rocket 3.8 20:57:28 10° NE 21:02:54 84° NW 21:08:17 10° SW
USA 215 3.3 20:59:43 10° ENE 21:06:13 62° SE 21:12:41 10° SW
Cosmos 2278 Rocket 2.5 21:03:07 10° NNW 21:08:44 60° ENE 21:13:09 17° SE
Cosmos 1892 3.9 21:07:02 19° SE 21:08:47 26° E 21:11:59 10° NNE
ATLAS 5 CENTAUR R/B 2.3 21:07:59 10° WSW 21:12:09 57° NW 21:16:53 10° NE
Meteor 1-11 4.4 21:06:52 10° SSW 21:12:30 77° WNW 21:18:14 10° N
Cosmos 1844 Rocket 3.9 21:08:21 10° NW 21:13:16 33° WSW 21:18:10 10° SSW
Gblst 52 Del rocket 4.3 21:09:20 10° WNW 21:15:00 75° SSW 21:20:33 14° ESE
Cosmos 1943 Rocket 4.5 21:12:26 10° N 21:16:05 17° NE 21:19:43 10° ENE
SPOT 5 3.4 21:13:56 13° S 21:18:17 57° W 21:23:02 10° NNW
SL-16 R/B 4.1 21:18:56 12° ESE 21:20:37 13° E 21:23:06 10° ENE
Lacrosse 5 rocket 3.6 21:17:23 10° WNW 21:20:57 26° N 21:24:21 10° ENE
Nadezhda 3 Rocket 4.4 21:18:29 10° N 21:24:44 53° ENE 21:29:11 19° SE
USA 81 4.4 21:20:08 10° SSW 21:25:22 66° W 21:30:39 10° N
Cosmos 2058 3.4 21:25:00 23° SSE 21:27:11 44° E 21:31:09 10° NNE
Cosmos 2154 Rocket 4.4 21:23:04 19° SSE 21:27:17 47° E 21:33:12 10° NNE
BREEZE M DEB (TANK) 3.6 21:26:20 10° WSW 21:27:39 16° SW 21:27:39 16° SW
Cosmos 1408 3.8 21:29:06 22° ESE 21:30:15 27° E 21:33:19 10° NNE
Meteor 2-17 Rocket 4.5 21:27:25 18° S 21:32:00 64° E 21:38:00 10° NNE
In-Cosmos 22 Rocket 4.2 21:29:55 20° S 21:33:34 60° E 21:38:48 10° NNE
Cosmos 2074 Rocket 4.0 21:29:15 15° S 21:34:32 81° E 21:40:47 10° N
TSX-5 3.6 21:31:58 10° NNW 21:35:26 85° ENE 21:37:36 26° SE
Cosmos 1076 Rocket 3.8 21:36:08 25° SSE 21:38:23 51° E 21:42:33 10° NNE
Cosmos 1680 Rocket 3.9 21:35:41 21° SSE 21:38:50 45° ESE 21:43:53 10° NE
USA 267 3.2 21:34:04 16° SE 21:39:36 82° SW 21:46:13 10° WNW
CZ-4C R/B 4.5 21:38:44 10° NW 21:44:26 30° NNE 21:51:00 10° E
Cosmos 2084 4.3 21:41:47 10° NW 21:45:58 41° WSW 21:48:05 24° S
Cosmos 1842 Rocket 4.1 21:42:01 10° NNW 21:46:15 52° W 21:49:02 20° SSW
JB-3 4.3 21:43:41 10° N 21:47:33 81° WNW 21:49:57 22° SSW
COSMOS 2455 4.4 21:43:12 10° NNW 21:48:30 30° NE 21:53:47 10° E
Cosmos 2151 4.1 21:47:18 23° SE 21:48:55 30° E 21:52:41 10° NNE
MTI 4.1 21:48:27 10° N 21:51:31 58° WNW 21:53:10 24° SW
Cosmos 923 Rocket 3.9 21:52:20 18° SSW 21:56:18 79° ESE 22:01:37 10° NNE
Cosmos 2327 Rocket 4.4 21:52:14 20° S 21:56:43 82° E 22:02:53 10° N
ATLAS CENTAUR R/B 2.5 21:54:12 10° WNW 21:57:16 25° WSW 21:58:26 21° SSW
Cosmos 1825 2.8 21:58:09 31° SE 21:59:19 40° E 22:02:53 10° NNE
ALOS 2 3.5 21:58:03 22° ESE 22:00:23 38° ENE 22:04:27 10° N
Cosmos 2369 Rocket 4.2 21:56:27 10° N 22:00:46 22° NE 22:05:03 10° E
Cosmos 1151 Rocket 4.4 21:57:19 10° N 22:01:07 28° ENE 22:03:13 19° ESE
Cosmos 1980 3.6 21:56:55 18° SSW 22:01:09 71° ESE 22:06:48 10° NNE
Cosmos 967 Rocket 4.5 21:56:59 10° SSW 22:03:28 85° SE 22:09:59 10° NE
Cosmos 44 4.2 22:05:15 24° ESE 22:05:37 24° ESE 22:09:10 10° ENE
COSMOS 2428 3.5 22:00:41 10° SW 22:06:13 53° NW 22:11:48 10° NNE
Cosmos 1869 4.5 22:03:30 10° NNW 22:07:10 35° W 22:09:22 20° SW
Cosmos 371 Rocket 4.4 22:04:08 10° N 22:08:38 36° ENE 22:11:47 17° ESE
GP-B 4.1 22:05:31 10° NNE 22:09:37 35° E 22:11:23 25° SE
Cosmos 1295 Rocket 4.4 22:06:31 24° S 22:10:26 76° E 22:16:33 10° NNE
NOSS 0 Rocket 3.9 22:07:31 11° SSW 22:13:34 85° WNW 22:19:47 10° NNE
Terra 3.5 22:10:33 12° SW 22:13:54 25° W 22:17:49 10° NW
Cosmos 1624 Rocket 4.0 22:08:54 10° NNW 22:14:11 82° ENE 22:16:57 28° SSE
NOSS 3-4 (A) 3.8 22:07:46 10° NW 22:14:42 78° SW 22:19:47 23° SSE
NOSS 3-4 (C) 3.8 22:07:52 10° NW 22:14:49 78° SW 22:19:55 23° SSE
Cosmos 2237 Rocket 2.2 22:14:58 17° SSW 22:19:26 89° ESE 22:25:11 10° NNE
SL-4 R/B 3.1 22:19:54 14° ENE 22:19:54 14° ENE 22:20:54 10° NNE
Genesis I 3.1 22:18:36 34° SSW 22:20:06 64° SE 22:23:58 10° NE
Cosmos 2344 3.6 22:16:02 16° SSW 22:22:07 62° ESE 22:30:02 10° NE
Cosmos 2219 Rocket 3.6 22:17:01 10° WSW 22:22:12 38° NW 22:27:27 10° NNE
Elektron 1 4.4 22:21:21 21° SW 22:23:30 88° SE 22:29:16 10° NE
DELTA 2 R/B (1) 4.3 22:25:23 10° SW 22:36:22 - ESE 22:30:03 30° S
Thor Agena Rocket 3.6 22:25:03 10° NNE 22:30:12 78° WNW 22:33:18 24° SSW
Cosmos 2333 Rocket 3.9 22:27:23 10° WSW 22:32:29 32° NW 22:37:39 10° NNE
Cosmos 1515 Rocket 4.4 22:37:15 10° N 22:41:23 40° ENE 22:43:15 26° SE
BREEZE-M DEB (TANK) 1.5 22:38:10 10° WNW 22:41:22 53° SW 22:41:22 53° SW
Cosmos 1371 Rocket 4.3 22:36:44 10° NNW 22:41:52 55° WSW 22:44:15 30° S
ATLAS 2AS CENTAUR R/B 3.0 22:35:09 10° NW 22:42:34 60° WSW 22:46:25 27° S
EO 1 Del DPAF 3.7 22:39:36 10° N 22:43:18 53° WNW 22:45:00 28° SW
Cosmos 1892 4.5 22:41:59 14° WSW 22:44:26 26° WNW 22:47:40 10° NNW
Cosmos 1766 Rocket 3.5 22:44:24 38° S 22:46:02 76° E 22:50:27 10° NNE
Gbstr 26 Del rocket 4.1 22:49:28 23° ESE 22:49:28 23° ESE 22:51:51 10° E
Cosmos 1328 Rocket 3.5 22:44:30 10° N 22:48:51 78° E 22:50:25 39° SSE
Okean 3 Rocket 3.5 22:47:02 36° S 22:48:52 88° W 22:53:20 10° N
Aureole 2 Rocket 2.0 22:46:11 10° NNW 22:48:59 62° WSW 22:48:59 62° WSW
USA 215 3.8 22:42:49 10° NE 22:49:16 61° NNW 22:55:42 10° W
Cosmos 1606 2.7 22:47:18 10° NNW 22:51:12 77° W 22:52:19 44° S
Cosmos 2278 Rocket 3.6 22:47:51 10° NW 22:52:25 26° WSW 22:54:59 19° SW
Cosmos 2297 3.7 22:48:34 10° NNW 22:54:20 78° WSW 22:57:11 31° SSE
Cosmos 2218 Rocket 4.1 22:50:54 29° S 22:54:21 74° E 23:00:39 10° NNE
Cosmos 2228 Rocket 4.3 22:52:48 10° N 22:57:02 35° ENE 22:59:19 22° ESE
Cosmos 1420 Rocket 4.0 22:52:50 10° NNW 22:58:08 82° WSW 23:00:36 33° SSE
Cosmos 2366 rocket 4.0 22:56:35 29° S 23:00:02 77° E 23:06:24 10° NNE
Lacrosse 5 rocket 2.6 22:57:06 10° NW 23:00:55 39° NNE 23:04:32 10° E
Cosmos 1943 Rocket 2.5 22:55:21 10° NNW 23:01:00 64° ENE 23:04:40 22° SE
Cosmos 1633 3.4 23:01:11 33° ESE 23:01:50 36° E 23:05:12 10° NNE
SL-16 R/B 2.1 23:00:46 29° SSW 23:03:45 77° ESE 23:09:27 10° NNE
Cosmos 2056 Rocket 4.3 23:00:40 10° NW 23:05:44 41° WSW 23:07:58 28° SSW
Cosmos 1959 Rocket 4.4 23:06:20 29° S 23:09:39 90° W 23:15:54 10° N
YAOGAN 11 4.1 23:09:09 36° SSE 23:10:54 74° ENE 23:15:19 10° N
Cosmos 1743 Rocket 4.1 23:12:36 34° SE 23:13:59 47° E 23:18:10 10° NNE
Cosmos 2341 Rocket 4.5 23:11:46 21° SW 23:15:48 53° WNW 23:21:54 10° N
Cosmos 332 Rocket 3.7 23:14:42 10° NNW 23:19:32 81° WSW 23:21:28 36° SSE
Cosmos 1048 Rocket 4.5 23:19:32 32° SSE 23:21:36 48° ESE 23:26:40 10° NNE
USA 267 4.2 23:21:24 24° SSW 23:23:15 28° SW 23:28:44 10° WNW
Meteor 2-3 Rocket 3.7 23:21:02 31° SSW 23:23:51 87° W 23:29:36 10° NNE
Helios 1A 3.1 23:24:53 41° SSW 23:26:08 63° WSW 23:30:18 10° NNW
Cosmos 405 2.9 23:24:50 10° N 23:28:24 85° ENE 23:29:08 54° SSE
Cosmos 1452 Rocket 3.6 23:27:42 10° NNW 23:32:55 63° WSW 23:35:06 34° S
CZ-4C R/B 3.2 23:27:12 10° NW 23:34:11 69° NE 23:42:19 10° SE
Meteor 2-6 Rocket 4.4 23:29:24 10° N 23:34:54 65° ENE 23:37:54 26° SSE
COSMOS 2455 2.8 23:28:58 10° NW 23:35:01 75° WSW 23:38:24 27° SSE
Cosmos 1825 4.4 23:32:56 12° WSW 23:35:01 18° WNW 23:37:41 10° NNW
PSLV R/B 3.8 23:31:02 10° NNE 23:35:12 54° E 23:36:34 37° SSE
Cosmos 1340 3.2 23:34:23 35° SW 23:35:34 48° WNW 23:39:15 10° N
ALOS 2 4.0 23:35:27 22° WSW 23:36:48 26° W 23:40:30 10° NW
Cosmos 1110 Rocket 4.3 23:31:37 10° NNW 23:36:53 64° ENE 23:40:16 22° SE
Cosmos 1933 4.4 23:33:32 10° NNW 23:37:08 32° W 23:38:13 27° WSW
Cosmos 1408 Rocket 4.0 23:35:56 32° SW 23:37:41 54° WNW 23:42:02 10° N
SL-16 R/B 4.1 23:33:01 10° ESE 23:38:22 31° ENE 23:43:44 10° N
Cosmos 1151 Rocket 4.2 23:34:49 10° NNW 23:38:40 31° W 23:40:03 25° SW
Cosmos 1603 4.3 23:36:25 29° SSE 23:38:47 44° ESE 23:44:11 10° NE
Cosmos 1727 Rocket 4.2 23:38:41 10° NNW 23:44:49 61° W 23:48:04 29° SSW
APEX 3.9 23:42:36 10° NW 23:44:22 26° W 23:44:22 26° W
Resurs 1-4 Rocket 4.1 23:41:48 10° NE 23:45:27 18° E 23:48:44 11° SE
Cosmos 2369 Rocket 2.1 23:39:55 10° NNW 23:45:33 88° WSW 23:48:49 26° SSE
Cosmos 1500 Rocket 3.5 23:44:49 39° SSW 23:46:27 86° WNW 23:50:51 10° N
Cosmos 44 3.7 23:43:37 19° WSW 23:46:31 51° NW 23:50:54 10° NNE
Cosmos 371 Rocket 4.2 23:44:40 10° NW 23:49:00 33° WSW 23:50:25 28° SW
SeaSat 1 4.0 23:45:36 10° NE 23:49:30 23° ESE 23:51:20 19° SE
ISS -1.5 23:51:01 14° ESE 23:51:01 14° ESE 23:51:59 10° E
Helios 1B rocket 2.5 23:49:51 10° NNE 23:53:59 71° ESE 23:55:23 40° S
